| time (UTC) | temp C | wind direction | speed KPH | gust KPH | rain 1hr cm | rain 24hr cm | rain mn cm | humidity % | barometer mb |
| 20260507113003 | 4 | 269 | 0.0 | 0.0 | 0.00 | 0.00 | 0.00 | 96 | 1014.3 |
| 20260507110007 | 3 | 269 | 0.0 | 0.0 | 0.00 | 0.00 | 0.00 | 96 | 1014.1 |
| 20260507110005 | 3 | 269 | 0.0 | 0.0 | 0.00 | 0.00 | 0.00 | 96 | 1013.8 |
| 20260507104502 | 3 | 269 | 0.0 | 0.0 | 0.00 | 0.00 | 0.00 | 96 | 1014.1 |
| 20260507101502 | 3 | 269 | 0.0 | 0.0 | 0.00 | 0.00 | 0.00 | 96 | 1013.7 |
| 20260507100005 | 4 | 269 | 0.0 | 0.0 | 0.00 | 0.00 | 0.00 | 96 | 1013.9 |
| 20260507091502 | 4 | 269 | 0.0 | 0.0 | 0.00 | 0.03 | 0.00 | 96 | 1013.4 |
| 20260507090005 | 4 | 269 | 0.0 | 0.0 | 0.00 | 0.03 | 0.00 | 95 | 1013.4 |
| 20260507083002 | 4 | 269 | 0.0 | 0.0 | 0.00 | 0.05 | 0.00 | 95 | 1013.1 |
| 20260507080004 | 4 | 269 | 0.0 | 0.0 | 0.00 | 0.05 | 0.00 | 95 | 1013.2 |
| 20260507073002 | 5 | 269 | 0.0 | 0.0 | 0.00 | 0.23 | 0.00 | 94 | 1013.0 |
| 20260507071502 | 5 | 269 | 0.0 | 0.0 | 0.00 | 0.23 | 0.00 | 94 | 1013.0 |
| 20260507070011 | 5 | 269 | 0.0 | 0.0 | 0.00 | 0.23 | 0.00 | 94 | 1013.0 |
| 20260507064502 | 5 | 269 | 0.0 | 1.6 | 0.00 | 0.38 | 0.00 | 94 | 1013.1 |
| 20260507063002 | 5 | 269 | 0.0 | 0.0 | 0.00 | 0.38 | 0.00 | 94 | 1013.1 |
| 20260507061502 | 5 | 269 | 0.0 | 0.0 | 0.00 | 0.38 | 0.00 | 93 | 1013.0 |
| 20260507060002 | 5 | 269 | 0.0 | 0.0 | 0.00 | 0.38 | 0.00 | 92 | 1013.1 |
| 20260507054501 | 5 | 269 | 0.0 | 0.0 | 0.00 | 0.76 | 0.00 | 92 | 1013.1 |
| 20260507053003 | 5 | 269 | 0.0 | 0.0 | 0.00 | 0.76 | 0.00 | 91 | 1013.1 |
| 20260507051502 | 6 | 269 | 0.0 | 0.0 | 0.00 | 0.76 | 0.00 | 91 | 1013.1 |
| 20260507050005 | 6 | 269 | 0.0 | 1.6 | 0.00 | 0.76 | 0.00 | 91 | 1013.2 |
| 20260507050003 | 6 | 269 | 0.0 | 1.6 | 0.00 | 0.76 | 0.00 | 91 | 1013.3 |
| 20260507044502 | 6 | 269 | 0.0 | 0.0 | 0.00 | 0.89 | 0.00 | 90 | 1013.4 |
| 20260507043002 | 6 | 269 | 0.0 | 1.6 | 0.00 | 0.89 | 0.00 | 89 | 1013.2 |
| 20260507040006 | 6 | 269 | 0.0 | 0.0 | 0.00 | 0.89 | 0.00 | 87 | 1013.1 |
| 20260507034502 | 7 | 269 | 0.0 | 0.0 | 0.00 | 0.91 | 0.89 | 87 | 1013.3 |
| 20260507033003 | 7 | 269 | 0.0 | 0.0 | 0.00 | 0.91 | 0.89 | 86 | 1013.4 |
| 20260507031502 | 7 | 269 | 0.0 | 0.0 | 0.00 | 0.91 | 0.89 | 84 | 1013.4 |
| 20260507030006 | 7 | 269 | 0.0 | 0.0 | 0.00 | 0.91 | 0.89 | 83 | 1013.5 |
| 20260507024503 | 8 | 269 | 0.0 | 0.0 | 0.00 | 0.97 | 0.89 | 82 | 1013.4 |
| 20260507023002 | 8 | 269 | 0.0 | 0.0 | 0.00 | 0.97 | 0.89 | 80 | 1013.4 |
| 20260507021502 | 9 | 269 | 0.0 | 0.0 | 0.00 | 0.97 | 0.89 | 78 | 1013.4 |
| 20260507020004 | 9 | 269 | 0.0 | 0.0 | 0.00 | 0.97 | 0.89 | 75 | 1013.3 |
| 20260507014502 | 10 | 269 | 0.0 | 0.0 | 0.00 | 1.27 | 0.89 | 74 | 1013.2 |
| 20260507011502 | 11 | 269 | 0.0 | 0.0 | 0.00 | 1.27 | 0.89 | 70 | 1012.6 |
| 20260507010004 | 11 | 269 | 0.0 | 0.0 | 0.00 | 1.27 | 0.89 | 67 | 1012.8 |
| 20260507004502 | 12 | 269 | 0.0 | 0.0 | 0.00 | 1.32 | 0.89 | 64 | 1012.7 |
| 20260507003002 | 12 | 269 | 0.0 | 4.8 | 0.00 | 1.32 | 0.89 | 61 | 1012.7 |
| 20260507000004 | 13 | 274 | 1.6 | 11.3 | 0.00 | 1.32 | 0.89 | 59 | 1012.3 |
| 20260506234502 | 14 | 297 | 1.6 | 9.7 | 0.00 | 1.35 | 0.89 | 55 | 1011.9 |
| 20260506234500 | 14 | 297 | 0.0 | 9.7 | 0.00 | 1.35 | 0.89 | 55 | 1011.9 |
| 20260506233003 | 15 | 282 | 1.6 | 8.0 | 0.00 | 1.35 | 0.89 | 52 | 1011.9 |
| 20260506233001 | 15 | 276 | 1.6 | 8.0 | 0.00 | 1.35 | 0.89 | 52 | 1011.9 |
| 20260506231502 | 15 | 132 | 1.6 | 6.4 | 0.00 | 1.35 | 0.89 | 59 | 1011.5 |
| 20260506230005 | 14 | 39 | 1.6 | 8.0 | 0.00 | 1.35 | 0.89 | 56 | 1011.7 |
| 20260506221502 | 15 | 17 | 1.6 | 6.4 | 0.00 | 1.35 | 0.89 | 54 | 1012.1 |
| 20260506220005 | 14 | 4 | 1.6 | 8.0 | 0.00 | 1.35 | 0.89 | 56 | 1012.2 |
| 20260506214502 | 15 | 293 | 1.6 | 9.7 | 0.00 | 1.45 | 0.89 | 55 | 1012.2 |
| 20260506210006 | 15 | 294 | 0.0 | 8.0 | 0.00 | 1.42 | 0.89 | 52 | 1011.5 |
| 20260506204502 | 15 | 291 | 1.6 | 9.7 | 0.00 | 2.46 | 0.89 | 55 | 1011.5 |
| 20260506203002 | 15 | 28 | 1.6 | 6.4 | 0.00 | 2.46 | 0.89 | 53 | 1011.6 |
| 20260506201502 | 16 | 205 | 1.6 | 12.9 | 0.00 | 2.46 | 0.89 | 57 | 1011.5 |
| 20260506200004 | 16 | 37 | 3.2 | 9.7 | 0.00 | 2.46 | 0.89 | 53 | 1011.7 |
| 20260506194502 | 16 | 296 | 3.2 | 8.0 | 0.00 | 2.46 | 0.89 | 53 | 1011.6 |
| 20260506193002 | 16 | 27 | 1.6 | 6.4 | 0.00 | 2.46 | 0.89 | 51 | 1011.2 |
| 20260506190005 | 16 | 259 | 3.2 | 11.3 | 0.00 | 2.46 | 0.89 | 49 | 1011.3 |
| 20260506184500 | 17 | 31 | 3.2 | 9.7 | 0.00 | 2.46 | 0.89 | 48 | 1011.2 |
| 20260506183008 | 16 | 314 | 4.8 | 14.5 | 0.00 | 2.46 | 0.89 | 53 | 1011.3 |
| 20260506183000 | 16 | 314 | 1.6 | 14.5 | 0.00 | 2.46 | 0.89 | 53 | 1011.2 |
| 20260506181508 | 16 | 255 | 4.8 | 12.9 | 0.00 | 2.46 | 0.89 | 52 | 1011.3 |
| 20260506181500 | 16 | 255 | 3.2 | 12.9 | 0.00 | 2.46 | 0.89 | 52 | 1011.1 |
| 20260506180010 | 16 | 32 | 3.2 | 11.3 | 0.00 | 2.46 | 0.89 | 55 | 1011.5 |
| 20260506180003 | 16 | 32 | 3.2 | 11.3 | 0.00 | 2.46 | 0.89 | 55 | 1011.4 |
| 20260506174503 | 15 | 257 | 3.2 | 14.5 | 0.00 | 2.46 | 0.89 | 58 | 1011.7 |
| 20260506173002 | 15 | 113 | 4.8 | 14.5 | 0.00 | 2.46 | 0.89 | 55 | 1011.8 |
| 20260506171503 | 15 | 337 | 3.2 | 11.3 | 0.00 | 2.46 | 0.89 | 56 | 1011.8 |
| 20260506171500 | 15 | 337 | 3.2 | 11.3 | 0.00 | 2.46 | 0.89 | 56 | 1011.7 |
| 20260506170005 | 15 | 313 | 4.8 | 16.1 | 0.00 | 2.46 | 0.89 | 59 | 1011.8 |
| 20260506164505 | 14 | 269 | 3.2 | 14.5 | 0.00 | 2.46 | 0.89 | 61 | 1011.8 |
| 20260506164502 | 14 | 269 | 4.8 | 14.5 | 0.00 | 2.46 | 0.89 | 61 | 1011.9 |
| 20260506163002 | 14 | 45 | 1.6 | 11.3 | 0.00 | 2.46 | 0.89 | 62 | 1011.8 |
| 20260506161502 | 13 | 277 | 4.8 | 12.9 | 0.00 | 2.46 | 0.89 | 61 | 1011.9 |
| 20260506160005 | 13 | 50 | 3.2 | 9.7 | 0.00 | 2.46 | 0.89 | 65 | 1011.8 |
| 20260506160003 | 13 | 50 | 1.6 | 9.7 | 0.00 | 2.46 | 0.89 | 65 | 1011.6 |
| 20260506154502 | 12 | 70 | 3.2 | 11.3 | 0.00 | 2.46 | 0.89 | 68 | 1011.6 |
| 20260506153002 | 12 | 345 | 3.2 | 12.9 | 0.00 | 2.46 | 0.89 | 71 | 1012.0 |
| 20260506150004 | 11 | 29 | 3.2 | 16.1 | 0.00 | 2.46 | 0.89 | 75 | 1011.4 |
| 20260506150002 | 11 | 29 | 1.6 | 16.1 | 0.00 | 2.46 | 0.89 | 75 | 1011.2 |
| 20260506143002 | 11 | 342 | 3.2 | 17.7 | 0.00 | 2.46 | 0.89 | 79 | 1010.8 |
| 20260506141502 | 10 | 7 | 3.2 | 14.5 | 0.00 | 2.46 | 0.89 | 79 | 1010.7 |
| 20260506140004 | 10 | 54 | 1.6 | 6.4 | 0.00 | 2.46 | 0.89 | 82 | 1010.6 |
| 20260506133004 | 9 | 263 | 1.6 | 11.3 | 0.00 | 2.46 | 0.89 | 86 | 1010.3 |
| 20260506131502 | 8 | 313 | 3.2 | 9.7 | 0.00 | 2.46 | 0.89 | 88 | 1010.1 |
| 20260506130004 | 8 | 83 | 1.6 | 11.3 | 0.00 | 2.46 | 0.89 | 92 | 1009.5 |
| 20260506124502 | 7 | 182 | 1.6 | 11.3 | 0.00 | 2.46 | 0.89 | 94 | 1010.0 |
| 20260506123002 | 7 | 264 | 1.6 | 6.4 | 0.00 | 2.46 | 0.89 | 95 | 1009.8 |
| 20260506121502 | 7 | 261 | 0.0 | 3.2 | 0.00 | 2.46 | 0.89 | 95 | 1009.8 |
| 20260506120006 | 7 | 296 | 0.0 | 6.4 | 0.00 | 2.46 | 0.89 | 96 | 1008.9 |